Location: Zagreb
(45.8000°N, 16.0000°E)
Time: 09:15:45
(UTC+02:00)

A-11 Canister half - Visible Passes

Search period start: 15 July 2024 00:00
Search period end: 25 July 2024 00:00
Orbit: 1524 x 1684 km, 47.3° (Epoch: 14 July)

Date Brightness Start Highest point End Pass type
(mag) Time Alt. Az. Time Alt. Az. Time Alt. Az.
17 Jul 10.9 04:38:40 10° SSE 04:44:45 18° SE 04:50:44 10° E visible
18 Jul 10.9 04:17:21 10° SSE 04:23:04 17° SE 04:28:42 10° E visible
19 Jul 10.9 03:56:05 10° SSE 04:01:23 16° SE 04:06:38 10° E visible
20 Jul 10.9 03:34:53 10° SSE 03:39:43 15° ESE 03:44:31 10° E visible
21 Jul 10.9 03:13:45 10° SSE 03:18:03 14° ESE 03:22:18 10° E visible
22 Jul 10.9 02:52:44 10° SE 02:56:22 12° ESE 02:59:59 10° E visible
22 Jul 9.9 04:50:10 10° SSW 04:59:29 44° SE 05:08:35 10° ENE visible
23 Jul 10.9 02:31:56 10° SE 02:34:42 11° ESE 02:37:28 10° ESE visible
23 Jul 9.9 04:28:30 10° SSW 04:37:45 43° SE 04:46:48 10° ENE visible
24 Jul 10.9 02:11:39 10° SE 02:13:02 10° ESE 02:14:25 10° ESE visible
24 Jul 9.9 04:07:18 11° SSW 04:16:01 41° SE 04:24:58 10° ENE visible
